Tracking 35035 objects as of 16-Aug-2026
HD Live streaming from Space Station
objects crossing your sky now

BPA 3/SL-24 R/B

Track BPA 3/SL-24 R/B now!
10-day predictions


NORAD ID: 39448
Int'l Code: 2013-066AJ
Launch date: November 21, 2013
Source: Commonwealth of Independent States (former USSR) (CIS)
Launch site: Orenburg, Russia (OREN)

Note: This is a ROCKET BODY
Your satellite tracking list
Your tracking list is empty




NASA's NSSDC Master Catalog

Two Line Element Set (TLE):
1 39448U 13066AJ  26228.41085869  .00000030  00000-0  29740-4 0  9994
2 39448  97.6827  20.3214 0676562 225.3741 129.0292 13.43254092623972
Source of the keplerian elements: AFSPC